Regional Weather Roundup
Issued by NWS

Home | Current Version | Previous Version | Text Only | Print | Product List | Glossary Off
Versions: 1 2 3 4 5 6 7 8 9 10 11 12 13 14 15 16 17 18 19 20 21 22 23 24 25 26 27 28 29 30 31 32 33 34 35 36 37 38 39 40 41 42 43 44 45 46 47 48 49 50

000
ASUS45 KBOI 172110
RWRID

IDAHO REGIONAL WEATHER ROUNDUP
NATIONAL WEATHER SERVICE BOISE ID
300 PM MDT TUE OCT 17 2017

NOTE: "FAIR" INDICATES FEW OR NO CLOUDS BELOW 12000 FEET
WITH NO SIGNIFICANT WEATHER AND/OR OBSTRUCTIONS TO VISIBILITY

IDZ012-014-172200-
SOUTHWEST IDAHO


CITY           SKY/WX    TMP DP  RH WIND       PRES   REMARKS
BOISE          PTSUNNY   62  30  29 NW5       30.11F
CALDWELL       PTSUNNY   58  31  35 VRB5      30.11F
MOUNTAIN HOME  PTSUNNY   68  23  18 VRB3      30.09F
$$

IDZ016-017-172200-
SOUTHCENTRAL IDAHO


CITY           SKY/WX    TMP DP  RH WIND       PRES   REMARKS
BURLEY         PTSUNNY   68  24  19 NW3       30.10F
JEROME         PTSUNNY   67  25  20 SE3       30.11F
TWIN FALLS     PTSUNNY   67  29  24 N5        30.11F
$$

IDZ019>023-172200-
SOUTHEAST IDAHO


CITY           SKY/WX    TMP DP  RH WIND       PRES   REMARKS
IDAHO FALLS    CLOUDY    62  29  28 SW10      30.13F
POCATELLO      SUNNY     64  28  25 SW5       30.14F
REXBURG        CLOUDY    61  23  23 SW9       30.13F
$$

IDZ006-010-011-018-031-032-172200-
CENTRAL IDAHO MOUNTAINS


CITY           SKY/WX    TMP DP  RH WIND       PRES   REMARKS
MCCALL         PTSUNNY   59  27  29 S13G22    30.11F
HAILEY         MOSUNNY   64  27  24 SE12G21   30.14F
STANLEY          N/A     63  15  15 W12G22    30.17F
SALMON         CLOUDY    53  27  36 NW3       30.04F
CHALLIS        MOSUNNY   61  26  26 E3        30.06F
$$

IDZ002-004-006-007-026-172200-
NORTHERN IDAHO


CITY           SKY/WX    TMP DP  RH WIND       PRES   REMARKS
LEWISTON       MOSUNNY   63  41  44 N8        29.88F
LOWELL           N/A     52  42  69 CALM      29.98F
COEUR D`ALENE  CLOUDY    64  27  24 SW21G36   29.81F
MULLAN PASS    PTSUNNY   46  23  40 SW13G28   29.89F
$$



USA.gov is the U.S. government's official web portal to all federal, state and local government web resources and services.